Flag for Poland Weather past 2 weeks in Płock, Poland

Now
63 °F

Mild.


Feels Like: 63 °F
Forecast: 43 / 70 °F
Wind: 3 mph from Southeast

Location: Plock

Current Time: Apr 27, 2015 at 9:45:13 PM

Latest Report: Apr 27, 2015 at 9:00 PM


Visibility: 18 mi

Pressure: 29.59 "Hg

Humidity: 67%

Dew point: 52 °F

Location of PłockLocation

Historic Weather in Płock — Graph

°F

Płock temperature yesterday

Maximum temperature yesterday: 64 °F (at 2:00 AM)
Minimum temperature yesterday: 49 °F (at 11:00 PM)
Average temperature yesterday: 58 °F

Past Weeks' High & Low Weather Summary

 TemperatureHumidityPressure
High73 °F (Apr 27, 4:00 PM)98% (Apr 27, 12:00 AM)30.31 "Hg (Apr 27, 12:00 AM)
Low32 °F (Apr 22, 5:00 AM)32% (Apr 23, 2:00 PM)29.59 "Hg (Apr 27, 7:00 PM)
Average50 °F63%29.97 "Hg
* Reported Apr 12 8:00 PM — Apr 27 8:00 PM, Płock, Weather by CustomWeather, © 2015

Note: Actual official high and low records may vary slightly from our data, if they occured in-between our weather recording intervals... More about our weather records

Advertising

Płock weather history for previous 24 hours

 ConditionsComfort  
Time TempWeatherWind HumidityBarometerVisibility
8:00 PM
Mon, Apr 27
66 °FMild.3 mph65%29.59 "Hg13 mi
7:00 PM70 °FMild.2 mph55%29.59 "Hg25 mi
6:00 PM73 °FMild.5 mph44%29.61 "Hg31 mi
5:00 PM72 °FMild.5 mph46%29.62 "Hg19 mi
4:00 PM73 °FMild.5 mph47%29.63 "Hg17 mi
3:00 PM71 °FMild.5 mph49%29.65 "Hg17 mi
2:00 PM71 °FMild.6 mph47%29.67 "Hg19 mi
1:00 PM69 °FMild.6 mph55%29.69 "Hg16 mi
12:00 PM67 °FMild.6 mph59%29.70 "Hg17 mi
11:00 AM64 °FMild.5 mph69%29.72 "Hg18 mi
10:00 AM62 °FCool.6 mph71%29.72 "Hg15 mi
9:00 AM58 °FCool.3 mph82%29.73 "Hg10 mi
8:00 AM54 °FFog.2 mph90%29.74 "Hg5 mi
7:00 AM50 °FFog.2 mph98%29.75 "Hg2 mi
6:00 AM47 °FCool.2 mph98%29.75 "Hg1 mi
5:00 AM46 °FDuststorm.2 mph98%29.75 "Hg0 mi
4:00 AM47 °FDuststorm.2 mph98%29.76 "Hg0 mi
3:00 AM47 °FDuststorm.1 mph98%29.76 "Hg1 mi
2:00 AM48 °FDuststorm.2 mph98%29.76 "Hg1 mi
1:00 AM49 °FFog.2 mph98%29.76 "Hg1 mi
12:00 AM49 °FFog.1 mph98%29.77 "Hg1 mi
11:00 PM
Sun, Apr 26
49 °FFog.2 mph97%29.77 "Hg1 mi
10:00 PM50 °FFog.2 mph96%29.76 "Hg2 mi
9:00 PM52 °FCool.1 mph92%29.76 "Hg7 mi
Weather by CustomWeather, © 2015

See weather overviewHow to use our weather pages